Regional Weather Roundup
Issued by NWS

Home | Current Version | Previous Version | Graphics & Text | Print | Product List | Glossary On
Versions: 1 2 3 4 5 6 7 8 9 10 11 12 13 14 15 16 17 18 19 20 21 22 23 24 25 26 27 28 29 30 31 32 33 34 35 36 37 38 39 40 41 42 43 44 45 46 47 48 49 50
594
ASUS43 KLSX 201807
RWRMO

WEATHER SUMMARY FOR MISSOURI
NATIONAL WEATHER SERVICE SPRINGFIELD MO
1200 PM CST FRI JAN 20 2017

NOTE: "FAIR" INDICATES FEW OR NO CLOUDS BELOW 12,000 FEET WITH NO
       SIGNIFICANT WEATHER AND/OR OBSTRUCTIONS TO VISIBILITY.
       CURRENT SKY AND/OR WEATHER CONDITIONS ARE NOT AVAILABLE FOR
       CHILLICOTHE AND FARMINGTON.

MOZ001>031-035>038-043-044-053-054-201900-
...NORTHERN AND WESTERN MISSOURI...

CITY           SKY/WX    TMP DP  RH WIND       PRES   REMARKS
KANSAS CTY INT FOG       47  45  93 SE8       29.52F VSB 1/2
6HR MIN TEMP:  43; 6HR MAX TEMP:  47; 6HR PCP: TRACE;

KANSAS C DTWN  CLOUDY    50  48  93 E5        29.52F
6HR MIN TEMP:  45; 6HR MAX TEMP:  50;

LEE`S SUMMIT   CLOUDY    48  48 100 SE8       29.52F FOG
6HR MIN TEMP:  45; 6HR MAX TEMP:  48;

ST JOSEPH      CLOUDY    48  48 100 CALM      29.53F
6HR MIN TEMP:  42; 6HR MAX TEMP:  48;

CHILLICOTHE      N/A     45  45 100 E5        29.57F
6HR MIN TEMP:  41; 6HR MAX TEMP:  45;

KIRKSVILLE     CLOUDY    45  45 100 E8        29.58F
6HR MIN TEMP:  39; 6HR MAX TEMP:  46;


$$
MOZ066>068-077>081-088>096-101>105-201900-
...SOUTHWEST MISSOURI...

CITY           SKY/WX    TMP DP  RH WIND       PRES   REMARKS
SPRINGFIELD    PTSUNNY   56  47  71 S14G21    29.53F
6HR MIN TEMP:  48; 6HR MAX TEMP:  56; 6HR PCP: TRACE;

JOPLIN         MOSUNNY   61  47  59 S17       29.49F
6HR MIN TEMP:  49; 6HR MAX TEMP:  61;

BRANSON        PTSUNNY   59  48  67 SE10      29.57F

$$
MOZ032>034-039>042-045>050-055>058-069>072-201900-
...CENTRAL MISSOURI...

CITY           SKY/WX    TMP DP  RH WIND       PRES   REMARKS
COLUMBIA       CLOUDY    51  50  96 S10       29.58F
6HR MIN TEMP:  46; 6HR MAX TEMP:  52; 6HR PCP:  0.01;

JEFFERSON CITY CLOUDY    50  47  89 SE10      29.60F
6HR MIN TEMP:  46; 6HR MAX TEMP:  51;

ROLLA          CLOUDY    50  48  93 S9G20     29.59F
6HR MIN TEMP:  42; 6HR MAX TEMP:  50;

SEDALIA        CLOUDY    52  50  93 SE8       29.56F
6HR MIN TEMP:  44; 6HR MAX TEMP:  52;

WHITEMAN AFB   PTSUNNY   50  50 100 S6        29.52F
WARRENSBURG    CLOUDY    50  50 100 SE8       29.53F
OSAGE BEACH    CLOUDY    51  47  86 S12       29.58F

$$
MOZ051-052-059>065-201900-
...EAST CENTRAL MISSOURI...

CITY           SKY/WX    TMP DP  RH WIND       PRES   REMARKS
ST LOUIS INTL  CLOUDY    53  47  79 S13       29.62F
6HR MIN TEMP:  48; 6HR MAX TEMP:  53; 6HR PCP: TRACE;

SPIRIT OF STL  CLOUDY    52  49  89 S6        29.61F
6HR MIN TEMP:  45; 6HR MAX TEMP:  52;

ST CHARLES     CLOUDY    52  49  89 S15       29.61F
6HR MIN TEMP:  44; 6HR MAX TEMP:  52;


$$
MOZ072>076-082>087-097>100-106>115-201900-
...SOUTH CENTRAL AND SOUTHEAST MISSOURI...

CITY           SKY/WX    TMP DP  RH WIND       PRES   REMARKS
CAPE GIRARDEAU CLOUDY    56  53  90 S12       29.66F
6HR MIN TEMP:  51; 6HR MAX TEMP:  56;

FARMINGTON     CLOUDY    52  48  86 S12       29.63F
6HR MIN TEMP:  48; 6HR MAX TEMP:  52;

POPLAR BLUFF   CLOUDY    56  55  97 S8        29.64F
6HR MIN TEMP:  49; 6HR MAX TEMP:  56; 6HR PCP: TRACE;

WEST PLAINS    CLOUDY    53  49  86 S8        29.61F
6HR MIN TEMP:  49; 6HR MAX TEMP:  53;


$$



USA.gov is the U.S. government's official web portal to all federal, state and local government web resources and services.